Погода в Форт-Нельсон

Канада     58°48′20″N   122°41′45″W
темп.,
°C
ветер,
м/с
пор.,
м/с
влажн.,
%
обл.,
%
осадки,
мм/ч
давл.,
гПа
погр.,
м
17 мая, пн
пн1723:00+5ссз279514 0.8 1009389
02:00+4сз2793100 0.0 1009496
05:00+3сз2693100 0.0 1010395
08:00+4ссз1390100 0.1 1010327
11:00+6с348093 0.2 1010789
14:00+7с346197 0.1 10111190
17:00+10ссв334687 0.1 10111774
20:00+7ссв35617 0.0 1012864
18 мая, вт
вт1823:00+1ссв118258 0.0 101413
02:00+3ссв147699 0.0 1015188
05:00+2ссв1383100 0.0 1016143
08:00+5св236481 0.0 1017893
11:00+5с2259100 0.1 10171051
14:00+7ссв2349100 0.1 10171516
17:00+8ссв2347100 0.1 10171698
20:00+7ссв125347 0.0 10181026
19 мая, ср
ср1923:00+2сз11755 0.0 102010
02:00−1ссв11875 0.0 102110
05:00−2вюв11916 0.0 102310
08:00+4вюв116297 0.0 1023392
11:00+10в214265 0.0 10211260
14:00+13в213565 0.0 10191860
17:00+11св3342100 0.0 10181478
20:00+9ссв3557100 0.0 1019577
20 мая, чт
чт2023:00+5ю1170100 0.1 102011
02:00+3св018470 0.0 102111
05:00+1юв119494 0.0 102110
08:00+7юв226778 0.0 1021436
11:00+13ююв234418 0.0 10191414
14:00+17юв123468 0.0 10162209
17:00+17ю1132100 0.0 10152243
20:00+13зюз3754100 0.0 1016376
21 мая, пт
пт2123:00+7юз1177100 0.0 101711
02:00+5ююв118632 0.0 101710
05:00+4ююв119256 0.0 101813
08:00+11ююв13615 0.0 1016380
11:00+17юв23409 0.0 10131279
14:00+21ююв242771 0.0 10102654
17:00+21ю2427100 0.0 10082171
20:00+17в2243100 0.0 100616